Weather History for Fort Knox, KY

Change the Weather History Date:

Thursday, February 7, 2013

  Actual Average Record
Temperature  
Mean Temperature 50 °F -  
Max Temperature 65 °F 44 °F 65 °F (2013)
Min Temperature 35 °F 27 °F 1 °F (2014)
Degree Days  
Heating Degree Days 15    
Moisture  
Dew Point 36 °F    
Average Humidity 63    
Maximum Humidity 83    
Minimum Humidity 39    
Precipitation  
Precipitation 0.00 in - - ()
Sea Level Pressure  
Sea Level Pressure 30.00 in    
Wind  
Wind Speed 6 mph (SE)    
Max Wind Speed 15 mph    
Max Gust Speed -    
Visibility 10 miles    
Events      
Averages and records for this station are not official NWS values.
T = Trace of Precipitation, MM = Missing Value Source: NWS Daily Summary

Daily Weather History Graph

Daily Weather History Graph

Search for Another Location

Airport:

Trip Planner

Search our weather history database for the weather conditions in past years. The results will help you decide how hot, cold, wet, or windy it might be!

Date:

Astronomy

Feb. 07, 2013 Rise Set
Actual Time 7:42 AM EST 6:14 PM EST
Civil Twilight 7:14 AM EST 6:41 PM EST
Nautical Twilight 6:43 AM EST 7:12 PM EST
Astronomical Twilight 6:13 AM EST 7:43 PM EST
Moon 5:19 AM EST (2/7) 3:39 PM EST (2/7)
Length of Visible Light 11h 26m
Length of Day
10h 32m
Waning Crescent, 9% of the Moon is Illuminated
Feb 7
Waning Crescent
Feb 10
New
Feb 17
First Quarter
Feb 25
Full
Mar 4
Last Quarter

Hourly Weather History & Observations

Time (EST) Temp. Windchill Dew Point Humidity Pressure Visibility Wind Dir Wind Speed Gust Speed Precip Events Conditions
12:55 AM 35.8 °F 30.1 °F 29.3 °F 77% 30.12 in 10.0 mi NE 6.9 mph - N/A   Partly Cloudy
1:55 AM 35.8 °F 33.0 °F 29.7 °F 78% 30.14 in 10.0 mi ENE 3.5 mph - N/A   Mostly Cloudy
2:55 AM 35.4 °F 32.6 °F 29.7 °F 80% 30.14 in 10.0 mi East 3.5 mph - N/A   Overcast
3:55 AM 36.0 °F 33.3 °F 30.0 °F 79% 30.13 in 10.0 mi NNW 3.5 mph - N/A   Partly Cloudy
4:55 AM 36.7 °F 34.1 °F 30.2 °F 77% 30.13 in 10.0 mi East 3.5 mph - N/A   Mostly Cloudy
5:55 AM 36.0 °F 30.3 °F 30.2 °F 80% 30.11 in 10.0 mi East 6.9 mph - N/A   Overcast
6:55 AM 35.6 °F 31.7 °F 30.4 °F 81% 30.09 in 10.0 mi East 4.6 mph - N/A   Mostly Cloudy
7:55 AM 35.1 °F 32.2 °F 30.4 °F 83% 30.10 in 10.0 mi East 3.5 mph - N/A   Overcast
8:55 AM 37.4 °F 34.9 °F 31.3 °F 79% 30.09 in 10.0 mi NE 3.5 mph - N/A   Mostly Cloudy
9:55 AM 41.7 °F 38.8 °F 32.5 °F 70% 30.08 in 10.0 mi East 4.6 mph - N/A   Clear
10:55 AM 48.6 °F - 34.0 °F 57% 30.06 in 10.0 mi SE 3.5 mph - N/A   Clear
11:55 AM 56.3 °F - 34.9 °F 45% 30.04 in 10.0 mi SSE 5.8 mph - N/A   Clear
12:55 PM 61.7 °F - 37.0 °F 40% 29.99 in 10.0 mi South 8.1 mph - N/A   Clear
1:55 PM 63.3 °F - 39.2 °F 41% 29.95 in 10.0 mi Variable 6.9 mph - N/A   Clear
2:55 PM 65.7 °F - 39.9 °F 39% 29.92 in 10.0 mi SSW 15.0 mph - N/A   Clear
3:55 PM 64.8 °F - 40.8 °F 42% 29.91 in 10.0 mi SSW 11.5 mph - N/A   Clear
4:55 PM 63.7 °F - 41.5 °F 44% 29.90 in 10.0 mi South 11.5 mph - N/A   Clear
5:55 PM 58.1 °F - 41.0 °F 53% 29.89 in 10.0 mi South 8.1 mph - N/A   Clear
6:55 PM 55.6 °F - 40.5 °F 57% 29.89 in 10.0 mi SSE 4.6 mph - N/A   Clear
7:55 PM 53.6 °F - 39.7 °F 59% 29.89 in 10.0 mi SSE 11.5 mph - N/A   Clear
8:55 PM 52.3 °F - 38.5 °F 59% 29.89 in 10.0 mi South 9.2 mph - N/A   Clear
9:55 PM 52.2 °F - 39.4 °F 62% 29.88 in 10.0 mi South 10.4 mph - N/A   Scattered Clouds
10:55 PM 51.4 °F - 39.9 °F 65% 29.86 in 10.0 mi South 11.5 mph - N/A   Mostly Cloudy
11:55 PM 51.4 °F - 43.7 °F 75% 29.85 in 10.0 mi South 12.7 mph - N/A   Overcast